Regional Weather Roundup
Issued by NWS San Diego, CA

Home | Current Version | Previous Version | Text Only | Print | Product List | Glossary On
Versions: 1 2 3 4 5 6 7 8 9 10 11 12 13 14 15 16 17 18 19 20 21 22 23 24 25 26 27 28 29 30 31 32 33 34 35 36 37 38 39 40 41 42 43 44 45 46 47 48 49 50
000
ASUS46 KSGX 210410
RWRSGX

SAN DIEGO HOURLY WEATHER ROUNDUP
NATIONAL WEATHER SERVICE SAN DIEGO CA
900 PM PDT WED AUG 20 2014

NOTE: "FAIR" INDICATES FEW OR NO CLOUDS BELOW 12,000 FEET WITH NO
SIGNIFICANT WEATHER AND/OR OBSTRUCTIONS TO VISIBILITY.

CAZ042-043-060-061-PZZ750-775-210500-

GREATER SAN DIEGO AREA

CITY           SKY/WX    TMP DP  RH WIND       PRES   REMARKS
LINDBERGH FLD  MOCLDY    71  61  70 NW7       29.93R
POINT LOMA       N/A     67  59  76 NW10        N/A
NATIONAL CITY    N/A     71  64  78 W2        29.92R
CHULA VISTA      N/A     71  64  79 W1        29.85R
IMPERIAL BEACH PTCLDY    71  62  73 NW7       29.92R
BROWN FIELD    CLEAR     68  61  78 W6        29.92R
MIRAMAR MCAS   PTCLDY    69  60  73 NW6       29.92R
MONTGOMERY FLD CLEAR     70  61  73 NW7       29.92R

$$

NORTH SAN DIEGO COUNTY

CITY           SKY/WX    TMP DP  RH WIND       PRES   REMARKS
CAMP PENDLETON PTCLDY    68  62  81 SW3       29.91R
OCEANSIDE AP   MOCLDY    70  62  76 CALM      29.90R
CARLSBAD       MOCLDY    69  61  75 CALM      29.91R
DEL MAR          N/A     69  63  82 CALM      29.94R
FALLBROOK        N/A     67  66  95 CALM      29.90R
ESCONDIDO        N/A     69  62  77 W7        29.94R
SAN MARCOS       N/A     68  62  80 NW3       29.90R
POWAY            N/A     69  62  78 W2        29.92R
R. PENASQUITOS   N/A     68  62  80 CALM      29.92R

$$

EAST SAN DIEGO COUNTY

CITY           SKY/WX    TMP DP  RH WIND       PRES   REMARKS
RAMONA         CLEAR     65  60  84 W6        29.94R
SANTEE LAKES     N/A     69  63  80 W3        29.92R
GILLESPIE FLD  FAIR      70  61  73 W6        29.94R
LA MESA          N/A     70  64  82 CALM      29.85R
JAMUL            N/A     68  62  81 CALM      29.90R
DESCANSO N       N/A     63  53  71 CALM      29.77R
MT. LAGUNA OBS   N/A     57  47  70 CALM      29.71R
CAMPO            N/A     66  57  72 SW5       29.95R

$$

ORANGE COUNTY AND THE LOS ANGELES BASIN

CITY           SKY/WX    TMP DP  RH WIND       PRES   REMARKS
JOHN WAYNE AP  PTCLDY    73  62  68 SW5       29.90R
LAGUNA BEACH     N/A     70  65  83 CALM      29.86S
LAKE FOREST FR   N/A     67  59  75 CALM      29.81R
SANTA ANA        N/A     72  65  79 CALM      29.85S
HUNTINGTON BCH   N/A     69  65  86 W5        29.92R
LOS ALAMITOS   PTCLDY    70  62  76 W3        29.90R
FULLERTON      CLEAR     73  61  65 W3        29.89R
LONG BEACH     CLEAR     71  61  70 W9        29.90R
L.A. AP        PTCLDY    69  61  75 W12       29.91R
L.A. DOWNTOWN  CLEAR     70  60  70 W6        29.90R

$$

THE INLAND EMPIRE

CITY           SKY/WX    TMP DP  RH WIND       PRES   REMARKS
CORONA         CLEAR     71  61  70 NW6       29.91R
CHINO          CLEAR     70  60  70 MISG      29.92R
ONTARIO        PTCLDY    73  58  59 W7        29.91R
RIVERSIDE AP   CLEAR     71  61  70 W6        29.91R
RIV CYN CREST    N/A     71  70  96 CALM      29.88R
MORENO VALLEY    N/A     69  63  79 CALM      29.12R
MARCH ARB      CLEAR     70  64  82 NW5       29.93R
HORSETHIEF CYN   N/A     73  56  54 W5        29.92R
PERRIS           N/A     71  60  67 CALM      29.89R
MENIFEE          N/A     73  65  75 SE6       29.96R
HEMET EAST       N/A     70  57  62 CALM      29.92R
FRENCH VALLEY  FAIR      68  61  77 SE6       29.94R
TEMECULA         N/A     69  63  81 S3        29.88R

$$

SAN BERNARDINO AND RIVERSIDE COUNTY MOUNTAINS

CITY           SKY/WX    TMP DP  RH WIND       PRES   REMARKS
BIG BEAR AP    CLEAR     52  41  66 CALM      30.19R
PINE COVE        N/A     58  46  64 CALM      29.80R

$$

SOUTHERN DESERT INCLUDING THE COACHELLA VALLEY

CITY           SKY/WX    TMP DP  RH WIND       PRES   REMARKS
PALM SPRINGS   CLEAR     88  52  29 NW13      29.81R
THOUSAND PALMS   N/A     85  52  31 NW15      29.76R
PALM DESERT      N/A     87  56  34 CALM        N/A
THERMAL        CLEAR     89  52  28 NW12      29.75R
BLYTHE         MOCLDY    84  70  62 NE5       29.77R
IMPERIAL AP    CLEAR     89  56  32 W12       29.74R
EL CENTRO NAS  PTCLDY    91  53  27 W15       29.75R
YUMA AZ        MOCLDY    93  62  35 SE16      29.77R
MEXICALI       PTCLDY    93  48  21 NW7       29.76

$$

UPPER DESERT

CITY           SKY/WX    TMP DP  RH WIND       PRES   REMARKS
VICTORVILLE AP CLEAR     73  48  40 S13       29.96R
HESPERIA         N/A     67  54  61 W2        29.97R
APPLE VALLEY     N/A     71  52  51 S3G17     30.04R
GRAY BUTTE AP  FAIR      72  47  40 W1        29.95R
PALMDALE       CLEAR     75  43  31 W5        29.94R
LANCASTER      CLEAR     73  46  38 W16       29.93R
EDWARDS AFB    PTCLDY    76  37  24 SW15      29.91R
DAGGETT        CLEAR     84  40  21 SW10      29.88R
29 PALMS N     CLEAR     81  48  31 W12       29.95R
NEEDLES        PTCLDY    93  50  23 W6        29.79R

$$

REGIONAL REPORTS

CITY           SKY/WX    TMP DP  RH WIND       PRES   REMARKS
SANTA BARBARA  PTCLDY    65  57  75 W3        29.90R
SANDBERG       CLEAR     66  42  41 S8        30.07R
MT. WILSON       N/A     59  46  63 MISG        N/A
LAS VEGAS NV   PTCLDY    83  51  33 S10       29.85R
PHOENIX AZ     CLOUDY    95  54  25 N6        29.82R
TIJUANA        CLEAR     68  59  73 W5        29.94R
ENSENADA NW      N/A     70  32  24 W2        29.90R

$$

OFFSHORE ISLANDS

CITY           SKY/WX    TMP DP  RH WIND       PRES   REMARKS
CATALINA ARPT  MOCLDY    61  57  87 W12       29.94S
SAN CLEMENTE I MOCLDY    67  59  75 W10       29.94R
SAN NICOLAS IS CLEAR    N/A N/A N/A W9        29.93R

$$

MARINE AND OFFSHORE BUOY REPORTS

STATION/POSITION SKY/WX   TEMP    WIND        PRES    SWELL
                          AIR SEA DIR/SP/G            HT/PER/DIR
                          (F)     (DEG/KT/KT) (MB)    (FT/S/D)
TANNER BANKS               66 69  310/  6/  8 1013.1R   3/290/12
S CLEMENTE BASIN           68 70  300/  8/ 10 1012.9R   3/220/13
SAN NICOLAS IS.               65                N/A     2/220/13
SO. S. ROSA ISLA           65 67  320/ 10/ 12 1012.8R   3/15
W. S. BARBARA CH           63 61  320/ 12/ 14 1012.3R   3/310/ 8
S. MONICA BASIN            68 72  280/ 10/ 12 1012.2R   2/190/14
S PEDRO CHANNEL               69                N/A     2/170/14
DANA POINT                    72                N/A     2/190/14
CMP PENDLETON NS              73                N/A     2/220/14
OCEANSIDE OFFSHR              73                N/A     2/200/15
TORREY PINES OTR              73                N/A     2/200/14
LA JOLLA 1                 71 67  310/  4/  6 1013.0R
MISSION BAY BUOY              69                N/A     2/210/13
SAN DIEGO BAY                 75              1013.4R
POINT LOMA SOUTH              73                N/A     2/210/14

$$



USA.gov is the U.S. government's official web portal to all federal, state and local government web resources and services.